Dewpoint
42 42 42 43 43 43 41 39 37 39 37 35 33 33 33 33 31 32 30 29 29 28 23 20 18 17 16 17 16 15 17 15 14 14 14 13 11 12 12 12 11 11 11 11 12 10 9 11 12 13 12 11 11 12 15 17 16 16 16 14 12 9 4 -1 -3 -4 0 9 10 10 17 14 11 14 15 15 17 18 19 18 18 17 17 15 16
43 43 42 42 41 40 40 38 36 35 35 33 30 31 30 29 29 28 28 27 25 27 24 20 17 16 16 16 14 14 14 14 12 11 10 10 10 18 13 11 11 12 12 10 11 13 11 11 13 13 12 12 12 11 12 12 11 11 10 8 9 12 7 2 -2 -2 -2 -1 5 9 11 14 9 13 14 12 13 16 17 17 17 16 16 15 14
43 42 42 41 41 41 36 34 34 34 33 31 29 28 28 25 26 26 25 24 24 23 21 19 17 15 16 15 14 13 14 11 9 9 8 8 8 12 13 11 12 12 11 11 11 11 11 12 13 13 15 12 12 11 12 11 10 8 8 8 5 7 8 8 2 0 0 1 1 2 2 8 6 5 12 14 13 14 14 14 15 17 16 15 15
42 42 41 39 38 36 35 33 32 32 31 30 28 26 25 24 24 24 24 25 24 22 19 19 16 14 14 12 11 11 10 7 6 6 9 7 7 8 8 10 11 11 11 11 11 10 11 12 14 14 13 13 12 11 11 10 9 7 7 8 6 6 8 8 6 3 2 2 1 2 4 3 3 8 10 11 11 11 12 13 15 16 16 16 14
41 41 40 38 36 35 33 31 30 30 29 28 27 25 23 22 22 23 24 23 22 20 19 16 14 13 14 11 10 8 7 7 8 7 7 6 6 6 7 9 10 10 10 10 16 10 11 12 14 15 14 14 13 12 11 11 10 8 8 8 9 6 7 7 6 6 4 4 3 3 4 4 5 6 8 8 8 8 10 10 12 13 13 14 15
39 40 40 39 37 34 33 31 29 28 28 27 26 23 21 20 20 21 23 25 21 20 17 13 14 11 10 9 8 7 6 5 5 6 5 6 5 6 7 8 8 7 8 10 10 9 10 11 14 15 14 13 14 14 13 12 11 10 9 8 8 8 7 6 6 6 6 5 4 4 4 4 4 5 7 9 9 8 8 9 10 10 10 10 11
38 38 38 38 36 34 33 30 28 27 26 26 24 22 19 18 17 18 19 20 18 16 14 12 13 9 9 8 7 6 7 6 6 6 7 6 5 5 6 7 7 8 8 9 9 8 8 9 13 14 15 15 15 16 14 13 13 12 12 11 9 8 7 7 6 6 5 5 5 4 4 5 5 5 6 9 10 10 9 9 9 9 8 8 8
37 37 36 36 37 35 32 30 28 27 26 25 23 21 19 16 16 15 17 16 15 14 12 12 10 8 8 7 8 8 6 5 5 6 7 6 7 6 7 7 7 7 9 9 9 8 7 8 11 14 14 14 14 14 14 14 14 13 12 12 10 9 8 10 8 7 7 6 5 5 5 5 6 7 9 10 10 10 11 11 9 8 7 7 8
37 36 35 35 36 34 32 29 27 26 25 24 22 20 18 16 16 16 16 16 17 14 14 11 10 8 7 6 6 7 6 5 7 6 7 7 9 9 9 9 6 7 7 9 10 9 8 8 8 11 14 21 22 22 20 20 18 20 16 12 11 10 15 15 15 10 11 11 10 7 6 6 7 7 8 9 10 10 10 8 8 7 7 8 8
37 36 35 35 34 33 30 28 27 26 25 22 20 18 16 16 16 16 16 16 15 14 13 11 10 9 8 7 7 9 7 13 17 20 18 10 10 14 11 10 8 7 8 8 8 9 9 9 10 21 22 23 24 23 23 23 24 20 17 13 18 18 18 17 15 16 16 15 14 11 12 10 9 8 8 9 9 9 9 8 8 9 8 8 8
36 36 36 35 34 32 30 28 26 24 23 21 19 20 18 20 18 20 18 17 18 17 15 12 10 9 9 8 8 7 7 10 22 24 24 24 14 13 16 14 11 8 7 7 7 9 9 9 9 18 22 22 22 24 24 25 25 24 24 22 21 19 20 19 17 17 16 16 15 16 12 11 10 9 9 9 9 9 9 9 9 9 9 10 11
35 35 35 34 34 31 29 26 24 24 23 22 24 24 25 24 23 23 21 21 19 18 16 13 11 9 10 11 9 8 6 18 25 26 26 25 23 16 16 20 16 7 7 6 7 8 8 10 11 13 16 17 16 18 22 25 26 26 26 24 23 23 22 20 18 17 18 16 15 16 12 11 10 9 9 9 9 10 10 10 10 10 10 11 10
34 34 33 33 32 31 27 25 25 23 25 25 26 26 25 25 24 23 23 23 22 18 16 15 14 12 10 10 9 9 7 24 26 28 28 27 25 18 19 16 18 17 8 7 7 7 9 11 12 14 14 22 23 18 16 18 25 27 27 27 26 25 24 24 22 20 18 19 18 16 11 10 9 9 10 10 11 11 11 11 11 11 10 10 10
33 33 32 32 31 29 27 28 27 25 25 26 25 26 26 26 25 25 24 24 22 21 21 19 17 12 11 10 10 10 9 24 27 28 29 27 25 20 21 21 22 15 8 7 8 9 11 14 15 15 14 15 16 17 16 15 14 18 22 23 23 24 27 26 25 24 20 14 13 15 11 9 8 9 12 15 13 14 14 15 14 14 14 12 12
32 32 32 31 30 29 27 27 26 26 26 26 26 26 26 26 26 25 24 23 22 22 22 22 21 20 20 17 14 17 11 26 29 29 29 28 27 21 22 21 20 17 10 10 10 12 13 14 15 15 15 14 14 16 15 15 18 21 22 23 22 22 23 24 24 23 22 20 16 13 12 12 12 13 14 16 15 15 16 18 17 17 16 15 15
32 31 31 30 29 27 27 28 28 27 26 26 26 26 26 26 26 25 23 22 23 22 21 22 23 23 22 21 19 18 14 27 30 30 29 29 27 22 21 21 21 22 20 15 14 13 14 14 15 16 17 16 19 23 22 16 20 21 21 22 22 21 21 23 26 27 25 23 22 21 20 18 21 21 21 21 20 20 20 20 19 18 17 15 14
31 31 30 29 28 27 26 27 27 27 27 27 27 27 27 26 26 24 24 23 24 23 24 24 23 23 24 23 21 15 20 28 31 30 30 30 28 24 24 22 22 22 22 20 18 16 16 16 16 16 16 15 19 22 23 24 22 21 20 20 21 21 20 19 21 24 26 28 29 29 30 30 29 29 29 29 28 26 22 19 18 18 15 14 14
30 30 30 28 27 26 26 27 29 28 28 28 27 26 25 26 26 25 24 22 22 24 23 24 23 23 24 23 22 19 21 28 31 31 31 31 30 29 27 27 26 25 25 23 21 20 20 24 23 17 15 15 18 21 22 22 24 23 23 21 20 20 20 19 15 16 22 24 25 26 27 27 28 28 28 28 28 27 24 21 20 19 16 15 13
29 29 29 27 26 26 27 28 28 28 28 28 28 27 26 26 26 26 25 25 25 25 24 24 23 24 24 23 26 21 23 27 31 30 31 31 30 30 29 28 28 28 27 27 26 25 23 24 25 22 18 16 20 21 22 21 23 23 24 23 22 20 21 21 19 19 19 18 16 16 17 20 19 17 18 22 23 24 21 22 22 20 17 15 15
28 28 27 26 26 28 28 29 28 28 28 28 28 26 26 25 26 26 26 24 24 23 22 23 23 23 23 23 24 23 23 26 30 31 32 32 31 30 30 28 28 29 28 28 28 28 26 24 23 25 26 25 24 24 24 24 21 23 22 22 21 21 21 21 21 20 20 19 19 16 15 15 15 14 14 15 17 19 19 21 22 22 20 17 15
27 27 25 25 27 29 29 29 29 29 29 27 27 26 25 26 25 25 25 24 23 22 23 23 22 23 23 23 23 23 23 25 28 30 31 31 32 31 29 29 29 29 28 28 28 27 26 25 22 23 26 26 27 27 27 26 25 23 23 22 22 22 23 22 22 23 22 22 22 21 20 20 19 18 16 17 17 18 19 20 21 22 20 19 17
25 25 27 28 29 30 29 30 29 29 28 28 27 26 26 27 26 26 23 23 24 24 23 22 21 22 22 24 23 24 25 26 26 29 30 31 31 32 30 30 30 29 28 27 27 26 25 23 21 22 25 26 26 27 27 27 27 25 25 27 28 28 27 26 26 25 24 24 24 23 22 21 18 18 18 17 17 18 19 19 21 21 20 20 18
27 27 28 28 29 29 29 28 28 28 28 28 27 26 25 26 26 26 25 24 25 24 24 23 23 22 22 22 23 23 24 25 26 27 30 31 31 31 31 30 30 29 27 27 26 25 24 23 21 24 25 25 26 26 27 27 27 25 27 28 28 27 26 25 25 25 25 24 24 22 21 21 21 19 18 18 19 19 18 18 19 20 19 18 17
27 27 27 28 28 28 28 28 28 27 27 27 26 26 25 25 24 23 24 22 21 22 21 23 22 22 22 22 22 22 23 23 26 26 27 29 30 30 30 30 30 29 28 26 26 24 24 24 25 24 25 26 26 27 27 27 26 27 28 28 27 27 26 26 25 25 24 23 22 22 22 21 21 20 20 19 18 19 18 18 17 16 16 15 15
27 27 27 27 27 27 27 27 27 27 27 26 25 24 25 25 23 24 24 23 23 22 22 23 23 23 22 22 22 21 20 20 20 24 25 26 27 28 28 29 28 28 26 26 25 25 24 25 25 25 24 23 23 22 21 21 22 22 23 23 22 21 21 22 22 23 22 21 21 20 19 19 18 18 19 17 18 16 16 15 14 13 13 13 13
26 26 26 26 27 27 27 27 27 27 27 26 26 25 24 24 23 23 23 23 23 23 23 23 23 23 23 22 20 18 17 17 17 18 22 23 23 24 25 25 25 25 25 25 25 24 23 22 21 20 19 18 16 17 16 17 18 19 19 20 18 17 18 19 20 21 21 20 20 19 19 18 19 17 16 15 15 14 14 12 12 11 11 9 8
25 26 26 25 26 27 26 25 25 26 26 25 25 24 24 24 24 23 24 24 24 24 23 22 22 21 21 20 19 17 16 16 14 14 15 17 19 21 22 23 22 21 20 20 19 17 15 15 17 17 17 18 19 19 18 18 17 17 17 18 18 18 18 17 17 17 17 18 18 17 17 17 17 16 14 14 13 13 13 11 10 10 9 8 7
25 25 25 25 25 26 25 22 24 24 25 26 24 24 25 25 24 24 24 24 23 22 21 21 20 20 19 17 16 15 14 14 14 14 13 13 14 15 16 14 15 15 16 16 16 15 15 16 18 17 17 17 17 17 17 17 16 16 16 15 16 17 18 19 19 17 16 16 15 15 15 15 14 14 14 12 11 11 12 10 9 8 8 6 5
25 25 25 24 24 23 24 25 24 24 23 22 22 23 24 24 23 21 19 21 22 21 20 20 19 19 18 16 15 14 14 14 14 16 14 16 14 12 11 12 12 12 13 16 13 13 14 15 16 17 17 17 17 16 16 15 15 14 15 15 15 15 15 14 13 13 13 13 13 12 12 12 12 12 12 11 10 10 10 9 9 8 6 5 4
24 23 23 23 23 23 22 22 21 20 20 20 20 21 20 22 20 19 18 21 21 22 20 18 17 17 16 16 16 15 15 15 19 20 19 20 19 17 16 16 17 17 19 22 21 18 18 18 18 18 18 17 16 15 15 14 14 13 13 13 12 12 12 12 11 11 11 10 10 10 10 10 9 9 9 9 9 9 9 10 7 7 4 4 3
21 21 20 20 21 21 20 19 19 19 20 20 20 20 20 22 24 23 23 22 23 22 22 22 21 19 16 14 19 21 21 22 22 21 21 22 22 21 21 22 22 21 22 21 20 20 19 18 18 18 17 16 15 13 12 11 10 9 9 8 8 9 9 8 8 8 6 5 6 6 7 7 7 7 7 7 7 7 7 7 6 5 4 3 2
20 20 20 19 19 18 19 18 18 18 18 19 20 20 20 20 21 24 24 24 24 23 23 22 22 21 20 19 20 19 22 23 23 23 23 23 23 23 23 23 23 24 24 24 22 19 17 17 16 14 13 12 11 10 9 8 8 7 6 6 5 5 4 3 4 1 -0 1 3 3 3 3 3 3 4 4 5 4 3 3 4 3 2 2 1
20 19 18 17 17 16 16 16 17 18 18 18 19 20 20 20 20 21 22 25 24 24 23 24 23 22 22 22 22 22 22 22 23 23 23 23 23 24 23 23 22 21 19 17 16 15 13 13 12 11 10 9 9 7 7 6 4 2 1 0 -1 -2 0 1 2 -0 -1 -0 2 1 2 2 2 2 2 2 1 0 1 1 1 1 1 0 -0
19 17 16 16 16 15 15 16 16 16 17 17 18 19 19 20 20 21 21 21 21 23 24 24 24 23 23 23 24 24 25 24 24 23 23 22 21 21 20 19 20 20 17 13 12 12 11 11 11 9 7 6 4 2 1 -1 -3 -4 -4 -3 -3 -2 -1 -1 -2 -2 -1 0 0 0 0 0 0 -1 -1 -1 -1 -1 -2 -1 -1 -1 -1 -2 -2
16 12 11 12 15 15 15 15 15 16 16 16 17 17 17 19 20 19 19 18 18 17 17 18 22 24 23 23 24 24 23 22 21 20 19 18 18 18 16 14 12 7 5 6 7 8 7 6 4 2 0 -1 -3 -5 -6 -7 -6 -5 -6 -5 -4 -4 -4 -4 -4 -2 -2 -3 -3 -3 -2 -2 -2 -2 -2 -3 -3 -3 -3 -3 -3 -3 -3 -3 -3
15 13 13 13 14 14 14 14 14 14 14 14 13 13 15 17 17 17 17 16 14 12 10 9 12 19 21 21 21 21 21 20 19 17 16 14 14 15 9 7 6 2 1 -1 0 -1 -1 -2 -3 -4 -6 -7 -7 -8 -8 -7 -7 -7 -7 -6 -5 -6 -6 -6 -4 -3 -3 -5 -4 -4 -3 -5 -4 -4 -4 -4 -3 -4 -3 -3 -3 -3 -3 -4 -4
14 13 13 12 12 12 11 11 12 13 13 9 10 11 14 14 13 14 14 13 11 9 8 7 9 12 13 9 15 19 19 18 17 15 14 12 10 4 1 1 -0 -2 -3 -4 -5 -5 -6 -7 -8 -8 -8 -10 -9 -9 -8 -8 -8 -8 -4 -5 -7 -7 -7 -6 -4 -4 -6 -7 -7 -6 -6 -6 -5 -5 -5 -5 -5 -5 -4 -4 -4 -4 -3 -3 -3
12 11 9 9 9 8 8 9 8 8 7 7 8 8 8 8 8 8 7 7 7 5 5 6 9 9 8 6 9 11 11 11 7 3 2 2 -6 -4 -4 -4 -5 -5 -6 -7 -8 -9 -8 -9 -10 -10 -10 -10 -10 -10 -9 -9 -9 -9 -9 -9 -8 -8 -4 -4 -6 -8 -8 -8 -7 -7 -6 -6 -6 -6 -5 -6 -6 -6 -6 -5 -5 -6 -6 -5 -4
7 7 7 8 10 8 7 6 5 6 6 6 6 5 4 4 4 4 4 5 6 4 2 3 3 3 3 1 3 6 6 -2 -6 -9 -11 -11 -10 -10 -9 -8 -9 -9 -9 -9 -8 -10 -11 -10 -10 -10 -11 -11 -11 -11 -10 -10 -10 -10 -10 -10 -10 -10 -10 -10 -10 -9 -9 -9 -8 -8 -8 -8 -7 -7 -6 -7 -7 -6 -6 -6 -7 -7 -7 -7 -6
7 7 8 9 7 6 4 3 4 3 3 4 3 3 2 2 3 1 1 0 -0 -1 -1 -2 -2 -2 -3 -3 -1 -2 -1 -5 -9 -11 -11 -12 -12 -12 -11 -11 -11 -11 -11 -11 -11 -12 -11 -12 -12 -12 -12 -13 -12 -12 -12 -11 -11 -11 -11 -11 -11 -10 -10 -10 -10 -10 -10 -9 -9 -9 -9 -9 -8 -8 -8 -8 -8 -7 -7 -7 -7 -7 -7 -7 -7
6 6 4 6 5 3 2 2 1 1 1 1 1 1 1 -0 -1 -2 -1 -2 -3 -4 -4 -4 -4 -4 -3 -1 6 3 -4 -7 -10 -11 -11 -12 -12 -13 -13 -12 -12 -12 -12 -12 -12 -12 -13 -13 -13 -13 -13 -13 -13 -13 -12 -12 -12 -12 -11 -11 -11 -11 -11 -11 -12 -12 -11 -10 -10 -10 -9 -9 -9 -9 -9 -8 -5 -5 -7 -7 -7 -7 -7 -7 -7
4 3 2 2 1 0 -1 -2 -2 -3 -2 -3 -1 -2 -4 -5 -4 -4 -4 -5 -6 -7 -7 -6 -5 -5 0 7 11 8 -6 -10 -11 -12 -12 -13 -13 -13 -13 -13 -13 -13 -13 -12 -13 -13 -13 -14 -14 -14 -13 -14 -13 -13 -13 -13 -13 -12 -12 -12 -12 -12 -13 -12 -12 -12 -12 -11 -11 -10 -10 -10 -9 -7 -7 -4 -8 -8 -8 -8 -8 -8 -8 -8 -8
1 0 -0 -1 -0 -1 -3 -4 -4 -4 -4 -4 -5 -5 -6 -6 -6 -6 -7 -7 -8 -8 -7 -6 -5 -6 -0 11 8 3 -11 -12 -11 -13 -13 -13 -13 -13 -13 -13 -13 -14 -14 -14 -14 -14 -14 -14 -14 -14 -14 -14 -14 -14 -13 -13 -13 -13 -13 -13 -13 -13 -13 -13 -13 -13 -13 -11 -11 -11 -11 -11 -10 -10 -9 -9 -9 -9 -9 -9 -9 -9 -9 -9 -9
-3 -3 -4 -5 -5 -6 -6 -5 -5 -6 -6 -7 -7 -8 -8 -8 -8 -8 -8 -9 -10 -9 -8 -7 -6 -5 -6 -4 -5 -9 -13 -13 -13 -13 -14 -14 -14 -14 -14 -14 -14 -15 -16 -16 -16 -17 -16 -16 -15 -15 -16 -16 -15 -16 -15 -14 -14 -14 -13 -13 -13 -13 -13 -13 -13 -13 -13 -12 -12 -12 -12 -11 -11 -10 -10 -9 -10 -10 -10 -10 -10 -10 -10 -10 -10
-4 -5 -5 -6 -6 -7 -7 -7 -7 -7 -8 -9 -9 -10 -10 -9 -9 -10 -10 -10 -12 -12 -12 -11 -10 -9 -10 -12 -13 -12 -13 -14 -14 -15 -15 -14 -14 -14 -14 -15 -17 -17 -17 -17 -17 -19 -19 -18 -17 -17 -17 -16 -17 -17 -17 -16 -15 -14 -14 -13 -14 -14 -13 -13 -13 -13 -13 -13 -13 -12 -12 -12 -12 -11 -11 -10 -10 -11 -10 -10 -10 -10 -10 -10 -11
-5 -6 -6 -7 -8 -9 -9 -9 -9 -8 -8 -8 -9 -10 -11 -11 -11 -12 -11 -12 -12 -13 -13 -13 -13 -13 -12 -13 -15 -14 -14 -17 -16 -15 -15 -16 -15 -15 -16 -16 -17 -18 -18 -17 -18 -20 -19 -18 -18 -17 -17 -16 -17 -17 -17 -17 -16 -16 -15 -15 -14 -14 -13 -13 -14 -14 -13 -13 -13 -13 -13 -13 -13 -12 -11 -11 -11 -11 -11 -11 -11 -11 -11 -12 -11
-6 -7 -7 -8 -8 -10 -10 -11 -10 -11 -11 -10 -11 -12 -12 -13 -13 -14 -14 -13 -13 -13 -13 -14 -14 -14 -14 -14 -14 -15 -15 -15 -15 -16 -16 -16 -18 -17 -18 -19 -19 -19 -19 -19 -20 -20 -20 -19 -19 -18 -18 -17 -17 -17 -17 -16 -16 -16 -15 -15 -15 -15 -14 -14 -14 -14 -13 -13 -13 -13 -13 -13 -13 -13 -12 -12 -11 -11 -11 -11 -11 -12 -12 -12 -13
-8 -8 -9 -10 -10 -10 -11 -10 -11 -12 -12 -13 -13 -13 -14 -14 -14 -13 -13 -14 -13 -14 -14 -15 -15 -15 -15 -15 -16 -16 -16 -16 -16 -16 -17 -17 -18 -18 -19 -21 -20 -19 -19 -20 -20 -20 -20 -20 -19 -19 -18 -18 -18 -17 -17 -17 -16 -16 -16 -15 -15 -15 -14 -14 -15 -15 -14 -14 -14 -14 -14 -14 -14 -14 -13 -13 -14 -13 -13 -13 -12 -13 -13 -13 -13
-10 -10 -10 -10 -10 -10 -11 -11 -12 -11 -12 -13 -13 -13 -14 -14 -14 -13 -13 -13 -13 -13 -13 -14 -14 -16 -16 -16 -16 -17 -17 -18 -17 -17 -17 -17 -18 -18 -19 -20 -20 -20 -20 -19 -19 -19 -20 -20 -19 -19 -19 -18 -18 -18 -17 -17 -16 -16 -16 -16 -15 -13 -13 -13 -14 -14 -13 -14 -14 -14 -14 -14 -14 -15 -15 -15 -14 -14 -14 -14 -14 -14 -14 -14 -14
-11 -12 -12 -12 -12 -12 -13 -12 -13 -13 -14 -13 -13 -13 -14 -14 -13 -14 -14 -14 -14 -15 -15 -15 -15 -15 -15 -15 -16 -16 -17 -17 -17 -16 -16 -17 -17 -18 -19 -19 -20 -20 -20 -19 -19 -18 -19 -19 -20 -20 -19 -19 -18 -18 -18 -17 -17 -16 -16 -16 -11 -9 -10 -11 -11 -12 -12 -13 -13 -13 -13 -14 -14 -15 -15 -15 -15 -15 -15 -15 -15 -15 -15 -16 -16
-13 -13 -13 -13 -14 -15 -15 -15 -15 -15 -14 -14 -13 -13 -14 -13 -13 -13 -14 -14 -14 -14 -14 -15 -15 -16 -16 -16 -16 -16 -16 -16 -16 -16 -16 -16 -17 -17 -18 -19 -19 -19 -19 -19 -19 -19 -19 -19 -19 -19 -19 -19 -18 -18 -18 -18 -17 -17 -15 -11 -10 -9 -10 -10 -12 -11 -10 -11 -12 -12 -13 -14 -15 -15 -16 -16 -16 -16 -16 -15 -16 -16 -16 -16 -16